owner,sensor,date,latitude,longitude,air_temperature,qcFlag 
DISL,ioos:station:DISL:BSCA:1,2017-09-01T00:00:00Z,30.3288,-87.8293,28.73,1111122 
DISL,ioos:station:DISL:BSCA:1,2017-09-01T00:30:00Z,30.3288,-87.8293,28.56,1111122 
DISL,ioos:station:DISL:BSCA:1,2017-09-01T01:00:00Z,30.3288,-87.8293,28.44,1111122 
DISL,ioos:station:DISL:BSCA:1,2017-09-01T01:30:00Z,30.3288,-87.8293,28.48,1111122 
DISL,ioos:station:DISL:BSCA:1,2017-09-01T02:00:00Z,30.3288,-87.8293,28.38,1111122 
DISL,ioos:station:DISL:BSCA:1,2017-09-01T02:30:00Z,30.3288,-87.8293,28.52,1111122 
DISL,ioos:station:DISL:BSCA:1,2017-09-01T03:00:00Z,30.3288,-87.8293,28.45,1111122 
DISL,ioos:station:DISL:BSCA:1,2017-09-01T03:30:00Z,30.3288,-87.8293,28.31,1111122 
DISL,ioos:station:DISL:BSCA:1,2017-09-01T04:00:00Z,30.3288,-87.8293,28.31,1111122 
DISL,ioos:station:DISL:BSCA:1,2017-09-01T04:30:00Z,30.3288,-87.8293,28.15,1111122 
DISL,ioos:station:DISL:BSCA:1,2017-09-01T05:00:00Z,30.3288,-87.8293,28.08,1111122 
DISL,ioos:station:DISL:BSCA:1,2017-09-01T05:30:00Z,30.3288,-87.8293,28.04,1111122 
DISL,ioos:station:DISL:BSCA:1,2017-09-01T06:00:00Z,30.3288,-87.8293,27.98,1111122 
DISL,ioos:station:DISL:BSCA:1,2017-09-01T06:30:00Z,30.3288,-87.8293,27.77,1111122 
DISL,ioos:station:DISL:BSCA:1,2017-09-01T07:00:00Z,30.3288,-87.8293,27.64,1111122 
DISL,ioos:station:DISL:BSCA:1,2017-09-01T07:30:00Z,30.3288,-87.8293,27.5,1111122 
DISL,ioos:station:DISL:BSCA:1,2017-09-01T08:00:00Z,30.3288,-87.8293,27.23,1111122 
DISL,ioos:station:DISL:BSCA:1,2017-09-01T08:30:00Z,30.3288,-87.8293,27.16,1111122 
DISL,ioos:station:DISL:BSCA:1,2017-09-01T09:00:00Z,30.3288,-87.8293,27.16,1111122 
DISL,ioos:station:DISL:BSCA:1,2017-09-01T09:30:00Z,30.3288,-87.8293,27.16,1111122 
DISL,ioos:station:DISL:BSCA:1,2017-09-01T10:00:00Z,30.3288,-87.8293,26.89,1111122 
DISL,ioos:station:DISL:BSCA:1,2017-09-01T10:30:00Z,30.3288,-87.8293,26.79,1111122 
DISL,ioos:station:DISL:BSCA:1,2017-09-01T11:00:00Z,30.3288,-87.8293,26.42,1111122 
DISL,ioos:station:DISL:BSCA:1,2017-09-01T11:30:00Z,30.3288,-87.8293,26.15,1111122 
DISL,ioos:station:DISL:BSCA:1,2017-09-01T12:00:00Z,30.3288,-87.8293,25.94,1111122 
DISL,ioos:station:DISL:BSCA:1,2017-09-01T12:30:00Z,30.3288,-87.8293,26.28,1111122 
DISL,ioos:station:DISL:BSCA:1,2017-09-01T13:00:00Z,30.3288,-87.8293,26.38,1111122 
DISL,ioos:station:DISL:BSCA:1,2017-09-01T13:30:00Z,30.3288,-87.8293,25.94,1111122 
DISL,ioos:station:DISL:BSCA:1,2017-09-01T14:00:00Z,30.3288,-87.8293,25.94,1111122 
DISL,ioos:station:DISL:BSCA:1,2017-09-01T14:30:00Z,30.3288,-87.8293,25.71,1111122 
DISL,ioos:station:DISL:BSCA:1,2017-09-01T15:00:00Z,30.3288,-87.8293,25.81,1111122 
DISL,ioos:station:DISL:BSCA:1,2017-09-01T15:30:00Z,30.3288,-87.8293,25.87,1111122 
DISL,ioos:station:DISL:BSCA:1,2017-09-01T16:00:00Z,30.3288,-87.8293,26.13,1111122 
DISL,ioos:station:DISL:BSCA:1,2017-09-01T16:30:00Z,30.3288,-87.8293,26.53,1111122 
DISL,ioos:station:DISL:BSCA:1,2017-09-01T17:00:00Z,30.3288,-87.8293,26.87,1111122 
DISL,ioos:station:DISL:BSCA:1,2017-09-01T17:30:00Z,30.3288,-87.8293,27.01,1111122 
DISL,ioos:station:DISL:BSCA:1,2017-09-01T18:00:00Z,30.3288,-87.8293,27.14,1111122 
DISL,ioos:station:DISL:BSCA:1,2017-09-01T18:30:00Z,30.3288,-87.8293,27.07,1111122 
DISL,ioos:station:DISL:BSCA:1,2017-09-01T19:00:00Z,30.3288,-87.8293,27.17,1111122 
DISL,ioos:station:DISL:BSCA:1,2017-09-01T19:30:00Z,30.3288,-87.8293,27.31,1111122 
DISL,ioos:station:DISL:BSCA:1,2017-09-01T20:00:00Z,30.3288,-87.8293,27.41,1111122 
DISL,ioos:station:DISL:BSCA:1,2017-09-01T20:30:00Z,30.3288,-87.8293,27.89,1111122 
DISL,ioos:station:DISL:BSCA:1,2017-09-01T21:00:00Z,30.3288,-87.8293,27.92,1111122 
DISL,ioos:station:DISL:BSCA:1,2017-09-01T21:30:00Z,30.3288,-87.8293,27.89,1111122 
DISL,ioos:station:DISL:BSCA:1,2017-09-01T22:00:00Z,30.3288,-87.8293,28.16,1111122 
DISL,ioos:station:DISL:BSCA:1,2017-09-01T22:30:00Z,30.3288,-87.8293,27.82,1111122 
DISL,ioos:station:DISL:BSCA:1,2017-09-01T23:00:00Z,30.3288,-87.8293,27.89,1111122 
DISL,ioos:station:DISL:BSCA:1,2017-09-01T23:30:00Z,30.3288,-87.8293,27.89,1111122 
DISL,ioos:station:DISL:BSCA:1,2017-09-02T00:00:00Z,30.3288,-87.8293,27.69,1111122 
DISL,ioos:station:DISL:BSCA:1,2017-09-02T00:30:00Z,30.3288,-87.8293,27.73,1111122 
DISL,ioos:station:DISL:BSCA:1,2017-09-02T01:00:00Z,30.3288,-87.8293,27.77,1111122 
DISL,ioos:station:DISL:BSCA:1,2017-09-02T01:30:00Z,30.3288,-87.8293,27.77,1111122 
DISL,ioos:station:DISL:BSCA:1,2017-09-02T02:00:00Z,30.3288,-87.8293,27.81,1111122 
DISL,ioos:station:DISL:BSCA:1,2017-09-02T02:30:00Z,30.3288,-87.8293,27.91,1111122 
DISL,ioos:station:DISL:BSCA:1,2017-09-02T03:00:00Z,30.3288,-87.8293,27.84,1111122 
DISL,ioos:station:DISL:BSCA:1,2017-09-02T03:30:00Z,30.3288,-87.8293,27.77,1111122 
DISL,ioos:station:DISL:BSCA:1,2017-09-02T04:00:00Z,30.3288,-87.8293,27.88,1111122 
DISL,ioos:station:DISL:BSCA:1,2017-09-02T04:30:00Z,30.3288,-87.8293,27.81,1111122 
DISL,ioos:station:DISL:BSCA:1,2017-09-02T05:00:00Z,30.3288,-87.8293,25.23,1111122 
DISL,ioos:station:DISL:BSCA:1,2017-09-02T05:30:00Z,30.3288,-87.8293,25.54,1111122 
DISL,ioos:station:DISL:BSCA:1,2017-09-02T06:00:00Z,30.3288,-87.8293,25.84,1111122 
DISL,ioos:station:DISL:BSCA:1,2017-09-02T06:30:00Z,30.3288,-87.8293,25.3,1111122 
DISL,ioos:station:DISL:BSCA:1,2017-09-02T07:00:00Z,30.3288,-87.8293,25.33,1111122 
DISL,ioos:station:DISL:BSCA:1,2017-09-02T07:30:00Z,30.3288,-87.8293,26.21,1111122 
DISL,ioos:station:DISL:BSCA:1,2017-09-02T08:00:00Z,30.3288,-87.8293,26.42,1111122 
DISL,ioos:station:DISL:BSCA:1,2017-09-02T08:30:00Z,30.3288,-87.8293,26.66,1111122 
DISL,ioos:station:DISL:BSCA:1,2017-09-02T09:00:00Z,30.3288,-87.8293,24.99,1111122 
DISL,ioos:station:DISL:BSCA:1,2017-09-02T09:30:00Z,30.3288,-87.8293,25.6,1111122 
DISL,ioos:station:DISL:BSCA:1,2017-09-02T10:00:00Z,30.3288,-87.8293,25.57,1111122 
DISL,ioos:station:DISL:BSCA:1,2017-09-02T10:30:00Z,30.3288,-87.8293,24.79,1111122 
DISL,ioos:station:DISL:BSCA:1,2017-09-02T11:00:00Z,30.3288,-87.8293,24.32,1111122 
DISL,ioos:station:DISL:BSCA:1,2017-09-02T11:30:00Z,30.3288,-87.8293,24.66,1111122 
DISL,ioos:station:DISL:BSCA:1,2017-09-02T12:00:00Z,30.3288,-87.8293,24.76,1111122 
DISL,ioos:station:DISL:BSCA:1,2017-09-02T12:30:00Z,30.3288,-87.8293,24.83,1111122 
DISL,ioos:station:DISL:BSCA:1,2017-09-02T13:00:00Z,30.3288,-87.8293,25.03,1111122 
DISL,ioos:station:DISL:BSCA:1,2017-09-02T13:30:00Z,30.3288,-87.8293,25.44,1111122 
DISL,ioos:station:DISL:BSCA:1,2017-09-02T14:00:00Z,30.3288,-87.8293,26.21,1111122 
DISL,ioos:station:DISL:BSCA:1,2017-09-02T14:30:00Z,30.3288,-87.8293,26.55,1111122 
DISL,ioos:station:DISL:BSCA:1,2017-09-02T15:00:00Z,30.3288,-87.8293,26.87,1111122 
DISL,ioos:station:DISL:BSCA:1,2017-09-02T15:30:00Z,30.3288,-87.8293,27.34,1111122 
DISL,ioos:station:DISL:BSCA:1,2017-09-02T16:00:00Z,30.3288,-87.8293,27.38,1111122 
DISL,ioos:station:DISL:BSCA:1,2017-09-02T16:30:00Z,30.3288,-87.8293,27.85,1111122 
DISL,ioos:station:DISL:BSCA:1,2017-09-02T17:00:00Z,30.3288,-87.8293,27.89,1111122 
DISL,ioos:station:DISL:BSCA:1,2017-09-02T17:30:00Z,30.3288,-87.8293,28.22,1111122 
DISL,ioos:station:DISL:BSCA:1,2017-09-02T18:00:00Z,30.3288,-87.8293,28.22,1111122 
DISL,ioos:station:DISL:BSCA:1,2017-09-02T18:30:00Z,30.3288,-87.8293,27.41,1111122 
DISL,ioos:station:DISL:BSCA:1,2017-09-02T19:00:00Z,30.3288,-87.8293,27.89,1111122 
DISL,ioos:station:DISL:BSCA:1,2017-09-02T19:30:00Z,30.3288,-87.8293,27.58,1111122 
DISL,ioos:station:DISL:BSCA:1,2017-09-02T20:00:00Z,30.3288,-87.8293,28.53,1111122 
DISL,ioos:station:DISL:BSCA:1,2017-09-02T20:30:00Z,30.3288,-87.8293,28.73,1111122 
DISL,ioos:station:DISL:BSCA:1,2017-09-02T21:00:00Z,30.3288,-87.8293,28.94,1111122 
DISL,ioos:station:DISL:BSCA:1,2017-09-02T21:30:00Z,30.3288,-87.8293,28.9,1111122 
DISL,ioos:station:DISL:BSCA:1,2017-09-02T22:00:00Z,30.3288,-87.8293,29.38,1111122 
DISL,ioos:station:DISL:BSCA:1,2017-09-02T22:30:00Z,30.3288,-87.8293,28.9,1111122 
DISL,ioos:station:DISL:BSCA:1,2017-09-02T23:00:00Z,30.3288,-87.8293,28.83,1111122 
DISL,ioos:station:DISL:BSCA:1,2017-09-02T23:30:00Z,30.3288,-87.8293,28.7,1111122 
DISL,ioos:station:DISL:BSCA:1,2017-09-03T00:00:00Z,30.3288,-87.8293,28.36,1111122 
DISL,ioos:station:DISL:BSCA:1,2017-09-03T00:30:00Z,30.3288,-87.8293,28.26,1111122 
DISL,ioos:station:DISL:BSCA:1,2017-09-03T01:00:00Z,30.3288,-87.8293,28.43,1111122 
DISL,ioos:station:DISL:BSCA:1,2017-09-03T01:30:00Z,30.3288,-87.8293,27.73,1111122 
DISL,ioos:station:DISL:BSCA:1,2017-09-03T02:00:00Z,30.3288,-87.8293,26.93,1111122 
DISL,ioos:station:DISL:BSCA:1,2017-09-03T02:30:00Z,30.3288,-87.8293,26.49,1111122 
DISL,ioos:station:DISL:BSCA:1,2017-09-03T03:00:00Z,30.3288,-87.8293,26.59,1111122 
DISL,ioos:station:DISL:BSCA:1,2017-09-03T03:30:00Z,30.3288,-87.8293,26.42,1111122 
DISL,ioos:station:DISL:BSCA:1,2017-09-03T04:00:00Z,30.3288,-87.8293,26.45,1111122 
DISL,ioos:station:DISL:BSCA:1,2017-09-03T04:30:00Z,30.3288,-87.8293,25.94,1111122 
DISL,ioos:station:DISL:BSCA:1,2017-09-03T05:00:00Z,30.3288,-87.8293,25.77,1111122 
DISL,ioos:station:DISL:BSCA:1,2017-09-03T05:30:00Z,30.3288,-87.8293,25.71,1111122 
DISL,ioos:station:DISL:BSCA:1,2017-09-03T06:00:00Z,30.3288,-87.8293,25.6,1111122 
DISL,ioos:station:DISL:BSCA:1,2017-09-03T06:30:00Z,30.3288,-87.8293,25.54,1111122 
DISL,ioos:station:DISL:BSCA:1,2017-09-03T07:00:00Z,30.3288,-87.8293,25.6,1111122 
DISL,ioos:station:DISL:BSCA:1,2017-09-03T07:30:00Z,30.3288,-87.8293,24.93,1111122 
DISL,ioos:station:DISL:BSCA:1,2017-09-03T08:00:00Z,30.3288,-87.8293,25.1,1111122 
DISL,ioos:station:DISL:BSCA:1,2017-09-03T08:30:00Z,30.3288,-87.8293,24.49,1111122 
DISL,ioos:station:DISL:BSCA:1,2017-09-03T09:00:00Z,30.3288,-87.8293,24.59,1111122 
DISL,ioos:station:DISL:BSCA:1,2017-09-03T09:30:00Z,30.3288,-87.8293,24.28,1111122 
DISL,ioos:station:DISL:BSCA:1,2017-09-03T10:00:00Z,30.3288,-87.8293,24.05,1111122 
DISL,ioos:station:DISL:BSCA:1,2017-09-03T10:30:00Z,30.3288,-87.8293,24.18,1111122 
DISL,ioos:station:DISL:BSCA:1,2017-09-03T11:00:00Z,30.3288,-87.8293,23.98,1111122 
DISL,ioos:station:DISL:BSCA:1,2017-09-03T11:30:00Z,30.3288,-87.8293,23.84,1111122 
DISL,ioos:station:DISL:BSCA:1,2017-09-03T12:00:00Z,30.3288,-87.8293,24.18,1111122 
DISL,ioos:station:DISL:BSCA:1,2017-09-03T12:30:00Z,30.3288,-87.8293,24.52,1111122 
DISL,ioos:station:DISL:BSCA:1,2017-09-03T13:00:00Z,30.3288,-87.8293,25.3,1111122 
DISL,ioos:station:DISL:BSCA:1,2017-09-03T13:30:00Z,30.3288,-87.8293,25.5,1111122 
DISL,ioos:station:DISL:BSCA:1,2017-09-03T14:00:00Z,30.3288,-87.8293,26.01,1111122 
DISL,ioos:station:DISL:BSCA:1,2017-09-03T14:30:00Z,30.3288,-87.8293,26.69,1111122 
DISL,ioos:station:DISL:BSCA:1,2017-09-03T15:00:00Z,30.3288,-87.8293,27.09,1111122 
DISL,ioos:station:DISL:BSCA:1,2017-09-03T15:30:00Z,30.3288,-87.8293,27.34,1111122 
DISL,ioos:station:DISL:BSCA:1,2017-09-03T16:00:00Z,30.3288,-87.8293,27.48,1111122 
DISL,ioos:station:DISL:BSCA:1,2017-09-03T16:30:00Z,30.3288,-87.8293,27.55,1111122 
DISL,ioos:station:DISL:BSCA:1,2017-09-03T17:00:00Z,30.3288,-87.8293,27.58,1111122 
DISL,ioos:station:DISL:BSCA:1,2017-09-03T17:30:00Z,30.3288,-87.8293,27.99,1111122 
DISL,ioos:station:DISL:BSCA:1,2017-09-03T18:00:00Z,30.3288,-87.8293,28.29,1111122 
DISL,ioos:station:DISL:BSCA:1,2017-09-03T18:30:00Z,30.3288,-87.8293,28.56,1111122 
DISL,ioos:station:DISL:BSCA:1,2017-09-03T19:00:00Z,30.3288,-87.8293,29.07,1111122 
DISL,ioos:station:DISL:BSCA:1,2017-09-03T19:30:00Z,30.3288,-87.8293,29.48,1111122 
DISL,ioos:station:DISL:BSCA:1,2017-09-03T20:00:00Z,30.3288,-87.8293,29.34,1111122 
DISL,ioos:station:DISL:BSCA:1,2017-09-03T20:30:00Z,30.3288,-87.8293,29.65,1111122 
DISL,ioos:station:DISL:BSCA:1,2017-09-03T21:00:00Z,30.3288,-87.8293,29.95,1111122 
DISL,ioos:station:DISL:BSCA:1,2017-09-03T21:30:00Z,30.3288,-87.8293,30.19,1111122 
DISL,ioos:station:DISL:BSCA:1,2017-09-03T22:00:00Z,30.3288,-87.8293,30.29,1111122 
DISL,ioos:station:DISL:BSCA:1,2017-09-03T22:30:00Z,30.3288,-87.8293,30.43,1111122 
DISL,ioos:station:DISL:BSCA:1,2017-09-03T23:00:00Z,30.3288,-87.8293,30.6,1111122 
DISL,ioos:station:DISL:BSCA:1,2017-09-03T23:30:00Z,30.3288,-87.8293,30.33,1111122 
DISL,ioos:station:DISL:BSCA:1,2017-09-04T00:00:00Z,30.3288,-87.8293,30.09,1111122 
DISL,ioos:station:DISL:BSCA:1,2017-09-04T00:30:00Z,30.3288,-87.8293,29.07,1111122 
DISL,ioos:station:DISL:BSCA:1,2017-09-04T01:00:00Z,30.3288,-87.8293,28.56,1111122 
DISL,ioos:station:DISL:BSCA:1,2017-09-04T01:30:00Z,30.3288,-87.8293,28.1,1111122 
DISL,ioos:station:DISL:BSCA:1,2017-09-04T02:00:00Z,30.3288,-87.8293,27.53,1111122 
DISL,ioos:station:DISL:BSCA:1,2017-09-04T02:30:00Z,30.3288,-87.8293,27.54,1111122 
DISL,ioos:station:DISL:BSCA:1,2017-09-04T03:00:00Z,30.3288,-87.8293,27.23,1111122 
DISL,ioos:station:DISL:BSCA:1,2017-09-04T03:30:00Z,30.3288,-87.8293,26.99,1111122 
DISL,ioos:station:DISL:BSCA:1,2017-09-04T04:00:00Z,30.3288,-87.8293,26.28,1111122 
DISL,ioos:station:DISL:BSCA:1,2017-09-04T04:30:00Z,30.3288,-87.8293,25.88,1111122 
DISL,ioos:station:DISL:BSCA:1,2017-09-04T05:00:00Z,30.3288,-87.8293,25.94,1111122 
DISL,ioos:station:DISL:BSCA:1,2017-09-04T05:30:00Z,30.3288,-87.8293,26.08,1111122 
DISL,ioos:station:DISL:BSCA:1,2017-09-04T06:00:00Z,30.3288,-87.8293,25.84,1111122 
DISL,ioos:station:DISL:BSCA:1,2017-09-04T06:30:00Z,30.3288,-87.8293,25.94,1111122 
DISL,ioos:station:DISL:BSCA:1,2017-09-04T07:00:00Z,30.3288,-87.8293,25.77,1111122 
DISL,ioos:station:DISL:BSCA:1,2017-09-04T07:30:00Z,30.3288,-87.8293,25.74,1111122 
DISL,ioos:station:DISL:BSCA:1,2017-09-04T08:00:00Z,30.3288,-87.8293,25.33,1111122 
DISL,ioos:station:DISL:BSCA:1,2017-09-04T08:30:00Z,30.3288,-87.8293,25.57,1111122 
DISL,ioos:station:DISL:BSCA:1,2017-09-04T09:00:00Z,30.3288,-87.8293,24.49,1111122 
DISL,ioos:station:DISL:BSCA:1,2017-09-04T09:30:00Z,30.3288,-87.8293,24.69,1111122 
DISL,ioos:station:DISL:BSCA:1,2017-09-04T10:00:00Z,30.3288,-87.8293,24.89,1111122 
DISL,ioos:station:DISL:BSCA:1,2017-09-04T10:30:00Z,30.3288,-87.8293,24.08,1111122 
DISL,ioos:station:DISL:BSCA:1,2017-09-04T11:00:00Z,30.3288,-87.8293,24.32,1111122 
DISL,ioos:station:DISL:BSCA:1,2017-09-04T11:30:00Z,30.3288,-87.8293,24.38,1111122 
DISL,ioos:station:DISL:BSCA:1,2017-09-04T12:00:00Z,30.3288,-87.8293,24.38,1111122 
DISL,ioos:station:DISL:BSCA:1,2017-09-04T12:30:00Z,30.3288,-87.8293,24.83,1111122 
DISL,ioos:station:DISL:BSCA:1,2017-09-04T13:00:00Z,30.3288,-87.8293,25.1,1111122 
DISL,ioos:station:DISL:BSCA:1,2017-09-04T13:30:00Z,30.3288,-87.8293,25.98,1111122 
DISL,ioos:station:DISL:BSCA:1,2017-09-04T14:00:00Z,30.3288,-87.8293,26.52,1111122 
DISL,ioos:station:DISL:BSCA:1,2017-09-04T14:30:00Z,30.3288,-87.8293,27.02,1111122 
DISL,ioos:station:DISL:BSCA:1,2017-09-04T15:00:00Z,30.3288,-87.8293,27.52,1111122 
DISL,ioos:station:DISL:BSCA:1,2017-09-04T15:30:00Z,30.3288,-87.8293,27.65,1111122 
DISL,ioos:station:DISL:BSCA:1,2017-09-04T16:00:00Z,30.3288,-87.8293,28.22,1111122 
DISL,ioos:station:DISL:BSCA:1,2017-09-04T16:30:00Z,30.3288,-87.8293,28.33,1111122 
DISL,ioos:station:DISL:BSCA:1,2017-09-04T17:00:00Z,30.3288,-87.8293,28.22,1111122 
DISL,ioos:station:DISL:BSCA:1,2017-09-04T17:30:00Z,30.3288,-87.8293,28.09,1111122 
DISL,ioos:station:DISL:BSCA:1,2017-09-04T18:00:00Z,30.3288,-87.8293,28.22,1111122 
DISL,ioos:station:DISL:BSCA:1,2017-09-04T18:30:00Z,30.3288,-87.8293,28.36,1111122 
DISL,ioos:station:DISL:BSCA:1,2017-09-04T19:00:00Z,30.3288,-87.8293,28.5,1111122 
DISL,ioos:station:DISL:BSCA:1,2017-09-04T19:30:00Z,30.3288,-87.8293,28.83,1111122 
DISL,ioos:station:DISL:BSCA:1,2017-09-04T20:00:00Z,30.3288,-87.8293,28.9,1111122 
DISL,ioos:station:DISL:BSCA:1,2017-09-04T20:30:00Z,30.3288,-87.8293,28.83,1111122 
DISL,ioos:station:DISL:BSCA:1,2017-09-04T21:00:00Z,30.3288,-87.8293,28.97,1111122 
DISL,ioos:station:DISL:BSCA:1,2017-09-04T21:30:00Z,30.3288,-87.8293,28.9,1111122 
DISL,ioos:station:DISL:BSCA:1,2017-09-04T22:00:00Z,30.3288,-87.8293,29.0,1111122 
DISL,ioos:station:DISL:BSCA:1,2017-09-04T22:30:00Z,30.3288,-87.8293,29.04,1111122 
DISL,ioos:station:DISL:BSCA:1,2017-09-04T23:00:00Z,30.3288,-87.8293,29.04,1111122 
DISL,ioos:station:DISL:BSCA:1,2017-09-04T23:30:00Z,30.3288,-87.8293,28.77,1111122 
DISL,ioos:station:DISL:BSCA:1,2017-09-05T00:00:00Z,30.3288,-87.8293,28.46,1111122 
DISL,ioos:station:DISL:BSCA:1,2017-09-05T00:30:00Z,30.3288,-87.8293,28.36,1111122 
DISL,ioos:station:DISL:BSCA:1,2017-09-05T01:00:00Z,30.3288,-87.8293,28.41,1111122 
DISL,ioos:station:DISL:BSCA:1,2017-09-05T01:30:00Z,30.3288,-87.8293,28.21,1111122 
DISL,ioos:station:DISL:BSCA:1,2017-09-05T02:00:00Z,30.3288,-87.8293,28.18,1111122 
DISL,ioos:station:DISL:BSCA:1,2017-09-05T02:30:00Z,30.3288,-87.8293,28.25,1111122 
DISL,ioos:station:DISL:BSCA:1,2017-09-05T03:00:00Z,30.3288,-87.8293,28.25,1111122 
DISL,ioos:station:DISL:BSCA:1,2017-09-05T03:30:00Z,30.3288,-87.8293,28.18,1111122 
DISL,ioos:station:DISL:BSCA:1,2017-09-05T04:00:00Z,30.3288,-87.8293,28.21,1111122 
DISL,ioos:station:DISL:BSCA:1,2017-09-05T04:30:00Z,30.3288,-87.8293,28.25,1111122 
DISL,ioos:station:DISL:BSCA:1,2017-09-05T05:00:00Z,30.3288,-87.8293,28.21,1111122 
DISL,ioos:station:DISL:BSCA:1,2017-09-05T05:30:00Z,30.3288,-87.8293,28.21,1111122 
DISL,ioos:station:DISL:BSCA:1,2017-09-05T06:00:00Z,30.3288,-87.8293,28.15,1111122 
DISL,ioos:station:DISL:BSCA:1,2017-09-05T06:30:00Z,30.3288,-87.8293,28.04,1111122 
DISL,ioos:station:DISL:BSCA:1,2017-09-05T07:00:00Z,30.3288,-87.8293,28.11,1111122 
DISL,ioos:station:DISL:BSCA:1,2017-09-05T07:30:00Z,30.3288,-87.8293,28.11,1111122 
DISL,ioos:station:DISL:BSCA:1,2017-09-05T08:00:00Z,30.3288,-87.8293,28.04,1111122 
DISL,ioos:station:DISL:BSCA:1,2017-09-05T08:30:00Z,30.3288,-87.8293,27.98,1111122 
DISL,ioos:station:DISL:BSCA:1,2017-09-05T09:00:00Z,30.3288,-87.8293,28.11,1111122 
DISL,ioos:station:DISL:BSCA:1,2017-09-05T09:30:00Z,30.3288,-87.8293,25.27,1111122 
DISL,ioos:station:DISL:BSCA:1,2017-09-05T10:00:00Z,30.3288,-87.8293,25.27,1111122 
DISL,ioos:station:DISL:BSCA:1,2017-09-05T10:30:00Z,30.3288,-87.8293,24.89,1111122 
DISL,ioos:station:DISL:BSCA:1,2017-09-05T11:00:00Z,30.3288,-87.8293,24.38,1111122 
DISL,ioos:station:DISL:BSCA:1,2017-09-05T11:30:00Z,30.3288,-87.8293,24.69,1111122 
DISL,ioos:station:DISL:BSCA:1,2017-09-05T12:00:00Z,30.3288,-87.8293,24.28,1111122 
DISL,ioos:station:DISL:BSCA:1,2017-09-05T12:30:00Z,30.3288,-87.8293,24.66,1111122 
DISL,ioos:station:DISL:BSCA:1,2017-09-05T13:00:00Z,30.3288,-87.8293,24.99,1111122 
DISL,ioos:station:DISL:BSCA:1,2017-09-05T13:30:00Z,30.3288,-87.8293,25.33,1111122 
DISL,ioos:station:DISL:BSCA:1,2017-09-05T14:00:00Z,30.3288,-87.8293,25.88,1111122 
DISL,ioos:station:DISL:BSCA:1,2017-09-05T14:30:00Z,30.3288,-87.8293,26.55,1111122 
DISL,ioos:station:DISL:BSCA:1,2017-09-05T15:00:00Z,30.3288,-87.8293,26.79,1111122 
DISL,ioos:station:DISL:BSCA:1,2017-09-05T15:30:00Z,30.3288,-87.8293,27.16,1111122 
DISL,ioos:station:DISL:BSCA:1,2017-09-05T16:00:00Z,30.3288,-87.8293,27.29,1111122 
DISL,ioos:station:DISL:BSCA:1,2017-09-05T16:30:00Z,30.3288,-87.8293,27.62,1111122 
DISL,ioos:station:DISL:BSCA:1,2017-09-05T17:00:00Z,30.3288,-87.8293,27.92,1111122 
DISL,ioos:station:DISL:BSCA:1,2017-09-05T17:30:00Z,30.3288,-87.8293,27.92,1111122 
DISL,ioos:station:DISL:BSCA:1,2017-09-05T18:00:00Z,30.3288,-87.8293,28.39,1111122 
DISL,ioos:station:DISL:BSCA:1,2017-09-05T18:30:00Z,30.3288,-87.8293,28.56,1111122 
DISL,ioos:station:DISL:BSCA:1,2017-09-05T19:00:00Z,30.3288,-87.8293,28.83,1111122 
DISL,ioos:station:DISL:BSCA:1,2017-09-05T19:30:00Z,30.3288,-87.8293,29.0,1111122 
DISL,ioos:station:DISL:BSCA:1,2017-09-05T20:00:00Z,30.3288,-87.8293,29.07,1111122 
DISL,ioos:station:DISL:BSCA:1,2017-09-05T20:30:00Z,30.3288,-87.8293,29.38,1111122 
DISL,ioos:station:DISL:BSCA:1,2017-09-05T21:00:00Z,30.3288,-87.8293,29.17,1111122 
DISL,ioos:station:DISL:BSCA:1,2017-09-05T21:30:00Z,30.3288,-87.8293,29.11,1111122 
DISL,ioos:station:DISL:BSCA:1,2017-09-05T22:00:00Z,30.3288,-87.8293,28.7,1111122 
DISL,ioos:station:DISL:BSCA:1,2017-09-05T22:30:00Z,30.3288,-87.8293,28.46,1111122 
DISL,ioos:station:DISL:BSCA:1,2017-09-05T23:00:00Z,30.3288,-87.8293,28.43,1111122 
DISL,ioos:station:DISL:BSCA:1,2017-09-05T23:30:00Z,30.3288,-87.8293,28.4,1111122 
DISL,ioos:station:DISL:BSCA:1,2017-09-06T00:00:00Z,30.3288,-87.8293,28.3,1111122 
DISL,ioos:station:DISL:BSCA:1,2017-09-06T00:30:00Z,30.3288,-87.8293,28.31,1111122 
DISL,ioos:station:DISL:BSCA:1,2017-09-06T01:00:00Z,30.3288,-87.8293,28.45,1111122 
DISL,ioos:station:DISL:BSCA:1,2017-09-06T01:30:00Z,30.3288,-87.8293,28.35,1111122 
DISL,ioos:station:DISL:BSCA:1,2017-09-06T02:00:00Z,30.3288,-87.8293,28.45,1111122 
DISL,ioos:station:DISL:BSCA:1,2017-09-06T02:30:00Z,30.3288,-87.8293,28.45,1111122 
DISL,ioos:station:DISL:BSCA:1,2017-09-06T03:00:00Z,30.3288,-87.8293,28.52,1111122 
DISL,ioos:station:DISL:BSCA:1,2017-09-06T03:30:00Z,30.3288,-87.8293,28.38,1111122 
DISL,ioos:station:DISL:BSCA:1,2017-09-06T04:00:00Z,30.3288,-87.8293,28.28,1111122 
DISL,ioos:station:DISL:BSCA:1,2017-09-06T04:30:00Z,30.3288,-87.8293,28.25,1111122 
DISL,ioos:station:DISL:BSCA:1,2017-09-06T05:00:00Z,30.3288,-87.8293,28.28,1111122 
DISL,ioos:station:DISL:BSCA:1,2017-09-06T05:30:00Z,30.3288,-87.8293,28.38,1111122 
DISL,ioos:station:DISL:BSCA:1,2017-09-06T06:00:00Z,30.3288,-87.8293,28.35,1111122 
DISL,ioos:station:DISL:BSCA:1,2017-09-06T06:30:00Z,30.3288,-87.8293,25.74,1111122 
DISL,ioos:station:DISL:BSCA:1,2017-09-06T07:00:00Z,30.3288,-87.8293,23.23,1111122 
DISL,ioos:station:DISL:BSCA:1,2017-09-06T07:30:00Z,30.3288,-87.8293,23.13,1111122 
DISL,ioos:station:DISL:BSCA:1,2017-09-06T08:00:00Z,30.3288,-87.8293,22.96,1111122 
DISL,ioos:station:DISL:BSCA:1,2017-09-06T08:30:00Z,30.3288,-87.8293,23.71,1111122 
DISL,ioos:station:DISL:BSCA:1,2017-09-06T09:00:00Z,30.3288,-87.8293,24.72,1111122 
DISL,ioos:station:DISL:BSCA:1,2017-09-06T09:30:00Z,30.3288,-87.8293,24.83,1111122 
DISL,ioos:station:DISL:BSCA:1,2017-09-06T10:00:00Z,30.3288,-87.8293,24.66,1111122 
DISL,ioos:station:DISL:BSCA:1,2017-09-06T10:30:00Z,30.3288,-87.8293,23.94,1111122 
DISL,ioos:station:DISL:BSCA:1,2017-09-06T11:00:00Z,30.3288,-87.8293,23.64,1111122 
DISL,ioos:station:DISL:BSCA:1,2017-09-06T11:30:00Z,30.3288,-87.8293,22.59,1111122 
DISL,ioos:station:DISL:BSCA:1,2017-09-06T12:00:00Z,30.3288,-87.8293,21.88,1111122 
DISL,ioos:station:DISL:BSCA:1,2017-09-06T12:30:00Z,30.3288,-87.8293,21.85,1111122 
DISL,ioos:station:DISL:BSCA:1,2017-09-06T13:00:00Z,30.3288,-87.8293,21.82,1111122 
DISL,ioos:station:DISL:BSCA:1,2017-09-06T13:30:00Z,30.3288,-87.8293,22.02,1111122 
DISL,ioos:station:DISL:BSCA:1,2017-09-06T14:00:00Z,30.3288,-87.8293,21.75,1111122 
DISL,ioos:station:DISL:BSCA:1,2017-09-06T14:30:00Z,30.3288,-87.8293,22.32,1111122 
DISL,ioos:station:DISL:BSCA:1,2017-09-06T15:00:00Z,30.3288,-87.8293,23.47,1111122 
DISL,ioos:station:DISL:BSCA:1,2017-09-06T15:30:00Z,30.3288,-87.8293,23.98,1111122 
DISL,ioos:station:DISL:BSCA:1,2017-09-06T16:00:00Z,30.3288,-87.8293,23.91,1111122 
DISL,ioos:station:DISL:BSCA:1,2017-09-06T16:30:00Z,30.3288,-87.8293,24.18,1111122 
DISL,ioos:station:DISL:BSCA:1,2017-09-06T17:00:00Z,30.3288,-87.8293,23.84,1111122 
DISL,ioos:station:DISL:BSCA:1,2017-09-06T17:30:00Z,30.3288,-87.8293,23.91,1111122 
DISL,ioos:station:DISL:BSCA:1,2017-09-06T18:00:00Z,30.3288,-87.8293,24.89,1111122 
DISL,ioos:station:DISL:BSCA:1,2017-09-06T18:30:00Z,30.3288,-87.8293,25.16,1111122 
DISL,ioos:station:DISL:BSCA:1,2017-09-06T19:00:00Z,30.3288,-87.8293,25.77,1111122 
DISL,ioos:station:DISL:BSCA:1,2017-09-06T19:30:00Z,30.3288,-87.8293,25.94,1111122 
DISL,ioos:station:DISL:BSCA:1,2017-09-06T20:00:00Z,30.3288,-87.8293,25.66,1111122 
DISL,ioos:station:DISL:BSCA:1,2017-09-06T20:30:00Z,30.3288,-87.8293,25.53,1111122 
DISL,ioos:station:DISL:BSCA:1,2017-09-06T21:00:00Z,30.3288,-87.8293,25.37,1111122 
DISL,ioos:station:DISL:BSCA:1,2017-09-06T21:30:00Z,30.3288,-87.8293,25.33,1111122 
DISL,ioos:station:DISL:BSCA:1,2017-09-06T22:00:00Z,30.3288,-87.8293,25.16,1111122 
DISL,ioos:station:DISL:BSCA:1,2017-09-06T22:30:00Z,30.3288,-87.8293,24.99,1111122 
DISL,ioos:station:DISL:BSCA:1,2017-09-06T23:00:00Z,30.3288,-87.8293,24.55,1111122 
DISL,ioos:station:DISL:BSCA:1,2017-09-06T23:30:00Z,30.3288,-87.8293,23.81,1111122 